Location: Sternwarte Stuttgart
(48.7670°N, 9.1830°E)
Time: 00:12:29
(UTC+02:00)

Cosmos 1656 Rocket - Pass Details

Date: 24 January 2019
Orbit: 797 x 845 km, 71.1° (Epoch: 18 April)

Event Time Altitude Azimuth Distance (km) Brightness Sun altitude
Exits shadow 05:58:24 24° 226° (SW) 1,688 4.9 -20.4°
Maximum altitude 06:01:51 63° 301° (WNW) 939 3.6 -19.8°
Drops below altitude 10° 06:07:29 10° 23° (NNE) 2,465 6.3 -18.9°
Sets 06:09:58 0° 27° (NNE) 3,397 7.1 -18.5°
